Time,TemperatureF,DewpointF,PressureIn,WindDirection,WindDirectionDegrees,WindSpeedMPH,WindSpeedGustMPH,Humidity,HourlyPrecipIn,Conditions,Clouds,dailyrainin,SoftwareType,DateUTC
2013-03-11 00:03:00,39.8,30.8,30.05,WNW,296,0.0,1.0,70,0.00,,---,0.00,VWS V14.01,2013-03-11 05:03:00,
2013-03-11 00:08:00,39.9,30.6,30.05,WNW,297,0.0,1.0,69,0.00,,---,0.00,VWS V14.01,2013-03-11 05:08:00,
2013-03-11 00:13:00,40.0,30.7,30.05,WNW,296,1.0,1.0,69,0.00,,---,0.00,VWS V14.01,2013-03-11 05:13:00,
2013-03-11 00:18:00,40.0,30.7,30.05,WNW,298,2.0,2.0,69,0.00,,---,0.00,VWS V14.01,2013-03-11 05:18:00,
2013-03-11 00:23:00,39.9,30.6,30.05,NW,315,2.0,3.0,69,0.00,,---,0.00,VWS V14.01,2013-03-11 05:23:00,
2013-03-11 00:28:00,39.7,30.7,30.05,NW,315,1.0,2.0,70,0.00,,---,0.00,VWS V14.01,2013-03-11 05:28:00,
2013-03-11 00:33:00,39.7,30.7,30.05,NW,317,1.0,4.0,70,0.00,,---,0.00,VWS V14.01,2013-03-11 05:33:00,
2013-03-11 00:38:00,40.0,31.0,30.06,NW,317,1.0,4.0,70,0.00,,---,0.00,VWS V14.01,2013-03-11 05:38:00,
2013-03-11 00:43:00,40.1,30.8,30.05,NW,317,1.0,3.0,69,0.00,,---,0.00,VWS V14.01,2013-03-11 05:43:00,
2013-03-11 00:49:00,40.3,31.0,30.06,NNW,327,2.0,4.0,69,0.00,,---,0.00,VWS V14.01,2013-03-11 05:49:00,
2013-03-11 00:54:00,40.2,30.9,30.06,NNW,340,1.0,3.0,69,0.00,,---,0.00,VWS V14.01,2013-03-11 05:54:00,
2013-03-11 00:59:00,40.2,30.9,30.06,NNW,341,4.0,5.0,69,0.00,,---,0.00,VWS V14.01,2013-03-11 05:59:00,
2013-03-11 01:04:00,40.4,31.0,30.06,NNW,346,1.0,4.0,69,0.00,,---,0.00,VWS V14.01,2013-03-11 06:04:00,
2013-03-11 01:09:00,40.2,30.9,30.07,North,355,0.0,3.0,69,0.00,,---,0.00,VWS V14.01,2013-03-11 06:09:00,
2013-03-11 01:14:00,39.8,30.8,30.07,North,355,0.0,0.0,70,0.00,,---,0.00,VWS V14.01,2013-03-11 06:14:00,
2013-03-11 01:19:00,39.6,30.6,30.07,North,355,0.0,0.0,70,0.00,,---,0.00,VWS V14.01,2013-03-11 06:19:00,
2013-03-11 01:24:00,39.3,30.7,30.07,North,355,0.0,0.0,71,0.00,,---,0.00,VWS V14.01,2013-03-11 06:24:00,
2013-03-11 01:29:00,39.1,30.9,30.07,North,355,0.0,0.0,72,0.00,,---,0.00,VWS V14.01,2013-03-11 06:29:00,
2013-03-11 01:34:00,38.9,31.0,30.08,North,355,0.0,0.0,73,0.00,,---,0.00,VWS V14.01,2013-03-11 06:34:00,
2013-03-11 01:39:00,38.9,31.0,30.08,North,355,0.0,0.0,73,0.00,,---,0.00,VWS V14.01,2013-03-11 06:39:00,
2013-03-11 01:44:00,38.9,31.0,30.08,North,355,0.0,1.0,73,0.00,,---,0.00,VWS V14.01,2013-03-11 06:44:00,
2013-03-11 01:49:00,38.9,31.0,30.09,North,355,0.0,0.0,73,0.00,,---,0.00,VWS V14.01,2013-03-11 06:49:00,
2013-03-11 01:54:00,38.7,31.1,30.09,North,355,0.0,0.0,74,0.00,,---,0.00,VWS V14.01,2013-03-11 06:54:00,
2013-03-11 02:00:00,38.4,30.9,30.09,North,355,0.0,0.0,74,0.00,,---,0.00,VWS V14.01,2013-03-11 07:00:00,
2013-03-11 02:05:00,38.2,31.0,30.09,North,355,0.0,0.0,75,0.00,,---,0.00,VWS V14.01,2013-03-11 07:05:00,
2013-03-11 02:10:00,38.0,30.8,30.09,North,355,0.0,0.0,75,0.00,,---,0.00,VWS V14.01,2013-03-11 07:10:00,
2013-03-11 02:15:00,37.6,30.7,30.09,North,355,0.0,0.0,76,0.00,,---,0.00,VWS V14.01,2013-03-11 07:15:00,
2013-03-11 02:20:00,37.2,30.4,30.09,North,355,0.0,0.0,76,0.00,,---,0.00,VWS V14.01,2013-03-11 07:20:00,
2013-03-11 02:25:00,36.8,30.3,30.09,North,355,0.0,0.0,77,0.00,,---,0.00,VWS V14.01,2013-03-11 07:25:00,
2013-03-11 02:30:00,36.5,30.9,30.09,North,355,0.0,0.0,80,0.00,,---,0.00,VWS V14.01,2013-03-11 07:30:00,
2013-03-11 02:35:00,36.2,31.5,30.09,North,355,0.0,0.0,83,0.00,,---,0.00,VWS V14.01,2013-03-11 07:35:00,
2013-03-11 02:40:00,35.9,31.5,30.10,North,355,0.0,0.0,84,0.00,,---,0.00,VWS V14.01,2013-03-11 07:40:00,
2013-03-11 02:45:00,35.2,30.9,30.10,North,355,0.0,0.0,84,0.00,,---,0.00,VWS V14.01,2013-03-11 07:45:00,
2013-03-11 02:50:00,35.2,30.9,30.10,North,355,0.0,0.0,84,0.00,,---,0.00,VWS V14.01,2013-03-11 07:50:00,
2013-03-11 02:55:00,35.2,30.9,30.10,North,355,0.0,0.0,84,0.00,,---,0.00,VWS V14.01,2013-03-11 07:55:00,
2013-03-11 03:00:00,35.1,30.8,30.10,North,355,0.0,0.0,84,0.00,,---,0.00,VWS V14.01,2013-03-11 08:00:00,
2013-03-11 03:06:00,34.9,30.6,30.10,North,355,0.0,0.0,84,0.00,,---,0.00,VWS V14.01,2013-03-11 08:06:00,
2013-03-11 03:11:00,34.8,30.5,30.10,North,355,0.0,0.0,84,0.00,,---,0.00,VWS V14.01,2013-03-11 08:11:00,
2013-03-11 03:16:00,34.8,30.5,30.10,North,355,0.0,0.0,84,0.00,,---,0.00,VWS V14.01,2013-03-11 08:16:00,
2013-03-11 03:21:00,34.5,30.2,30.10,North,355,0.0,0.0,84,0.00,,---,0.00,VWS V14.01,2013-03-11 08:21:00,
2013-03-11 03:26:00,34.4,30.1,30.10,North,355,0.0,0.0,84,0.00,,---,0.00,VWS V14.01,2013-03-11 08:26:00,
2013-03-11 03:31:00,34.2,29.9,30.10,North,355,0.0,0.0,84,0.00,,---,0.00,VWS V14.01,2013-03-11 08:31:00,
2013-03-11 03:36:00,34.1,29.8,30.10,North,355,0.0,0.0,84,0.00,,---,0.00,VWS V14.01,2013-03-11 08:36:00,
2013-03-11 03:41:00,33.9,29.6,30.10,North,355,0.0,0.0,84,0.00,,---,0.00,VWS V14.01,2013-03-11 08:41:00,
2013-03-11 03:46:00,33.6,29.6,30.09,North,355,0.0,0.0,85,0.00,,---,0.00,VWS V14.01,2013-03-11 08:46:00,
2013-03-11 03:51:00,33.5,29.5,30.09,North,355,0.0,0.0,85,0.00,,---,0.00,VWS V14.01,2013-03-11 08:51:00,
2013-03-11 03:56:00,33.2,29.2,30.09,North,355,0.0,0.0,85,0.00,,---,0.00,VWS V14.01,2013-03-11 08:56:00,
2013-03-11 04:01:00,32.8,29.1,30.09,North,355,0.0,0.0,86,0.00,,---,0.00,VWS V14.01,2013-03-11 09:01:00,
2013-03-11 04:06:00,32.6,28.9,30.09,North,355,0.0,0.0,86,0.00,,---,0.00,VWS V14.01,2013-03-11 09:06:00,
2013-03-11 04:11:00,32.3,28.6,30.09,North,355,0.0,0.0,86,0.00,,---,0.00,VWS V14.01,2013-03-11 09:11:00,
2013-03-11 04:17:00,32.2,29.0,30.09,North,355,0.0,0.0,88,0.00,,---,0.00,VWS V14.01,2013-03-11 09:17:00,
2013-03-11 04:22:00,32.0,28.9,30.09,North,355,0.0,0.0,88,0.00,,---,0.00,VWS V14.01,2013-03-11 09:22:00,
2013-03-11 04:27:00,31.9,29.0,30.08,North,355,0.0,0.0,89,0.00,,---,0.00,VWS V14.01,2013-03-11 09:27:00,
2013-03-11 04:32:00,32.1,29.5,30.08,North,355,0.0,0.0,90,0.00,,---,0.00,VWS V14.01,2013-03-11 09:32:00,
2013-03-11 04:37:00,32.0,29.4,30.08,North,355,0.0,0.0,90,0.00,,---,0.00,VWS V14.01,2013-03-11 09:37:00,
2013-03-11 04:42:00,31.8,29.2,30.09,North,355,0.0,0.0,90,0.00,,---,0.00,VWS V14.01,2013-03-11 09:42:00,
2013-03-11 04:47:00,31.7,29.1,30.08,North,355,0.0,0.0,90,0.00,,---,0.00,VWS V14.01,2013-03-11 09:47:00,
2013-03-11 04:52:00,31.6,29.0,30.08,North,355,0.0,0.0,90,0.00,,---,0.00,VWS V14.01,2013-03-11 09:52:00,
2013-03-11 04:58:00,31.5,28.9,30.08,North,355,0.0,0.0,90,0.00,,---,0.00,VWS V14.01,2013-03-11 09:58:00,
2013-03-11 05:03:00,31.4,29.1,30.08,North,355,0.0,0.0,91,0.00,,---,0.00,VWS V14.01,2013-03-11 10:03:00,
2013-03-11 05:08:00,31.3,29.0,30.08,North,355,0.0,0.0,91,0.00,,---,0.00,VWS V14.01,2013-03-11 10:08:00,
2013-03-11 05:13:00,31.3,29.0,30.08,North,355,0.0,0.0,91,0.00,,---,0.00,VWS V14.01,2013-03-11 10:13:00,
2013-03-11 05:18:00,31.3,29.2,30.08,North,355,0.0,0.0,92,0.00,,---,0.00,VWS V14.01,2013-03-11 10:18:00,
2013-03-11 05:23:00,31.2,28.9,30.08,North,355,0.0,0.0,91,0.00,,---,0.00,VWS V14.01,2013-03-11 10:23:00,
2013-03-11 05:28:00,31.1,28.8,30.08,North,355,0.0,0.0,91,0.00,,---,0.00,VWS V14.01,2013-03-11 10:28:00,
2013-03-11 05:33:00,31.1,29.0,30.08,North,355,0.0,0.0,92,0.00,,---,0.00,VWS V14.01,2013-03-11 10:33:00,
2013-03-11 05:38:00,31.1,29.0,30.08,North,355,0.0,0.0,92,0.00,,---,0.00,VWS V14.01,2013-03-11 10:38:00,
2013-03-11 05:43:00,31.0,28.7,30.08,North,355,0.0,0.0,91,0.00,,---,0.00,VWS V14.01,2013-03-11 10:43:00,
2013-03-11 05:48:00,30.8,28.5,30.08,North,355,0.0,0.0,91,0.00,,---,0.00,VWS V14.01,2013-03-11 10:48:00,
2013-03-11 05:53:00,30.8,28.8,30.08,North,355,0.0,0.0,92,0.00,,---,0.00,VWS V14.01,2013-03-11 10:53:00,
2013-03-11 05:58:00,30.8,28.8,30.08,North,355,0.0,0.0,92,0.00,,---,0.00,VWS V14.01,2013-03-11 10:58:00,
2013-03-11 06:04:00,30.8,28.8,30.08,North,355,0.0,0.0,92,0.00,,---,0.00,VWS V14.01,2013-03-11 11:04:00,
2013-03-11 06:09:00,30.6,28.6,30.08,North,355,0.0,0.0,92,0.00,,---,0.00,VWS V14.01,2013-03-11 11:09:00,
2013-03-11 06:14:00,30.4,28.4,30.08,North,355,0.0,0.0,92,0.00,,---,0.00,VWS V14.01,2013-03-11 11:14:00,
2013-03-11 06:19:00,30.2,28.2,30.08,North,355,0.0,0.0,92,0.00,,---,0.00,VWS V14.01,2013-03-11 11:19:00,
2013-03-11 06:24:00,29.9,27.6,30.09,North,355,0.0,0.0,91,0.00,,---,0.00,VWS V14.01,2013-03-11 11:24:00,
2013-03-11 06:29:00,29.8,27.8,30.09,North,355,0.0,0.0,92,0.00,,---,0.00,VWS V14.01,2013-03-11 11:29:00,
2013-03-11 06:34:00,30.0,28.0,30.09,North,355,0.0,0.0,92,0.00,,---,0.00,VWS V14.01,2013-03-11 11:34:00,
2013-03-11 06:39:00,30.2,28.4,30.08,North,355,0.0,0.0,93,0.00,,---,0.00,VWS V14.01,2013-03-11 11:39:00,
2013-03-11 06:44:00,30.3,28.5,30.08,North,355,0.0,0.0,93,0.00,,---,0.00,VWS V14.01,2013-03-11 11:44:00,
2013-03-11 06:49:00,30.2,28.2,30.08,North,355,0.0,0.0,92,0.00,,---,0.00,VWS V14.01,2013-03-11 11:49:00,
2013-03-11 06:54:00,30.1,28.1,30.08,North,355,0.0,0.0,92,0.00,,---,0.00,VWS V14.01,2013-03-11 11:54:00,
2013-03-11 06:59:00,30.2,28.4,30.08,North,355,0.0,0.0,93,0.00,,---,0.00,VWS V14.01,2013-03-11 11:59:00,
2013-03-11 07:04:00,30.3,28.5,30.08,North,355,0.0,1.0,93,0.00,,---,0.00,VWS V14.01,2013-03-11 12:04:00,
2013-03-11 07:09:00,30.8,29.0,30.08,North,355,0.0,1.0,93,0.00,,---,0.00,VWS V14.01,2013-03-11 12:09:00,
2013-03-11 07:15:00,31.2,29.4,30.08,North,355,0.0,1.0,93,0.00,,---,0.00,VWS V14.01,2013-03-11 12:15:00,
2013-03-11 07:20:00,31.6,29.5,30.08,North,355,0.0,1.0,92,0.00,,---,0.00,VWS V14.01,2013-03-11 12:20:00,
2013-03-11 07:25:00,32.1,29.8,30.08,West,263,2.0,4.0,91,0.00,,---,0.00,VWS V14.01,2013-03-11 12:25:00,
2013-03-11 07:30:00,32.9,30.3,30.09,WSW,252,0.0,4.0,90,0.00,,---,0.00,VWS V14.01,2013-03-11 12:30:00,
2013-03-11 07:35:00,33.7,30.5,30.09,WSW,256,1.0,4.0,88,0.00,,---,0.00,VWS V14.01,2013-03-11 12:35:00,
2013-03-11 07:40:00,34.2,30.7,30.09,West,273,0.0,4.0,87,0.00,,---,0.00,VWS V14.01,2013-03-11 12:40:00,
2013-03-11 07:45:00,34.6,30.9,30.09,WNW,286,3.0,3.0,86,0.00,,---,0.00,VWS V14.01,2013-03-11 12:45:00,
2013-03-11 07:50:00,34.8,30.8,30.09,West,259,1.0,4.0,85,0.00,,---,0.00,VWS V14.01,2013-03-11 12:50:00,
2013-03-11 07:55:00,35.0,31.0,30.10,West,265,2.0,3.0,85,0.00,,---,0.00,VWS V14.01,2013-03-11 12:55:00,
2013-03-11 08:00:00,35.3,31.0,30.10,West,273,0.0,4.0,84,0.00,,---,0.00,VWS V14.01,2013-03-11 13:00:00,
2013-03-11 08:05:00,35.7,31.4,30.10,West,269,5.0,5.0,84,0.00,,---,0.00,VWS V14.01,2013-03-11 13:05:00,
2013-03-11 08:10:00,36.2,31.5,30.10,West,275,3.0,6.0,83,0.00,,---,0.00,VWS V14.01,2013-03-11 13:10:00,
2013-03-11 08:15:00,36.7,31.4,30.10,West,271,5.0,8.0,81,0.00,,---,0.00,VWS V14.01,2013-03-11 13:15:00,
2013-03-11 08:20:00,37.2,31.6,30.11,WNW,292,2.0,6.0,80,0.00,,---,0.00,VWS V14.01,2013-03-11 13:20:00,
2013-03-11 08:25:00,37.7,31.5,30.11,West,277,3.0,10.0,78,0.00,,---,0.00,VWS V14.01,2013-03-11 13:25:00,
2013-03-11 08:30:00,38.1,31.5,30.11,West,260,8.0,13.0,77,0.00,,---,0.00,VWS V14.01,2013-03-11 13:30:00,
2013-03-11 08:35:00,38.4,31.8,30.11,WNW,300,3.0,9.0,77,0.00,,---,0.00,VWS V14.01,2013-03-11 13:35:00,
2013-03-11 08:40:00,38.6,31.0,30.10,WNW,297,1.0,15.0,74,0.00,,---,0.00,VWS V14.01,2013-03-11 13:40:00,
2013-03-11 08:45:00,39.0,31.1,30.11,West,281,5.0,11.0,73,0.00,,---,0.00,VWS V14.01,2013-03-11 13:45:00,
2013-03-11 08:50:00,39.2,30.6,30.11,NNW,327,1.0,11.0,71,0.00,,---,0.00,VWS V14.01,2013-03-11 13:50:00,
2013-03-11 08:55:00,39.5,30.5,30.11,NW,326,8.0,12.0,70,0.00,,---,0.00,VWS V14.01,2013-03-11 13:55:00,
2013-03-11 09:00:00,39.7,30.7,30.11,NW,304,4.0,9.0,70,0.00,,---,0.00,VWS V14.01,2013-03-11 14:00:00,
2013-03-11 09:05:00,40.0,30.3,30.11,NW,322,11.0,11.0,68,0.00,,---,0.00,VWS V14.01,2013-03-11 14:05:00,
2013-03-11 09:10:00,40.2,29.8,30.11,NNW,336,8.0,10.0,66,0.00,,---,0.00,VWS V14.01,2013-03-11 14:10:00,
2013-03-11 09:16:00,40.6,29.4,30.11,NW,309,13.0,13.0,64,0.00,,---,0.00,VWS V14.01,2013-03-11 14:16:00,
2013-03-11 09:21:00,40.6,27.8,30.11,NW,323,9.0,15.0,60,0.00,,---,0.00,VWS V14.01,2013-03-11 14:21:00,
2013-03-11 09:27:00,40.7,27.5,30.11,NNW,336,12.0,12.0,59,0.00,,---,0.00,VWS V14.01,2013-03-11 14:27:00,
2013-03-11 09:32:00,40.8,27.2,30.12,NNW,342,10.0,14.0,58,0.00,,---,0.00,VWS V14.01,2013-03-11 14:32:00,
2013-03-11 09:37:00,41.1,27.0,30.12,NW,305,3.0,11.0,57,0.00,,---,0.00,VWS V14.01,2013-03-11 14:37:00,
2013-03-11 09:42:00,41.7,27.6,30.12,WNW,291,2.0,8.0,57,0.00,,---,0.00,VWS V14.01,2013-03-11 14:42:00,
2013-03-11 09:47:00,42.0,27.5,30.12,West,277,0.0,11.0,56,0.00,,---,0.00,VWS V14.01,2013-03-11 14:47:00,
2013-03-11 09:52:00,42.5,27.0,30.12,WNW,292,12.0,13.0,54,0.00,,---,0.00,VWS V14.01,2013-03-11 14:52:00,
2013-03-11 09:57:00,42.2,25.9,30.12,West,267,5.0,16.0,52,0.00,,---,0.00,VWS V14.01,2013-03-11 14:57:00,
2013-03-11 10:02:00,42.1,26.2,30.12,NW,311,5.0,13.0,53,0.00,,---,0.00,VWS V14.01,2013-03-11 15:02:00,
2013-03-11 10:07:00,42.0,25.7,30.12,WNW,301,12.0,16.0,52,0.00,,---,0.00,VWS V14.01,2013-03-11 15:07:00,
2013-03-11 10:12:00,42.2,26.3,30.12,NW,317,7.0,13.0,53,0.00,,---,0.00,VWS V14.01,2013-03-11 15:12:00,
2013-03-11 10:17:00,42.6,26.7,30.12,WNW,292,3.0,9.0,53,0.00,,---,0.00,VWS V14.01,2013-03-11 15:17:00,
2013-03-11 10:22:00,43.0,26.1,30.12,NW,321,5.0,13.0,51,0.00,,---,0.00,VWS V14.01,2013-03-11 15:22:00,
2013-03-11 10:27:00,43.2,26.3,30.12,WNW,297,13.0,14.0,51,0.00,,---,0.00,VWS V14.01,2013-03-11 15:27:00,
2013-03-11 10:33:00,43.3,26.9,30.12,WNW,292,8.0,9.0,52,0.00,,---,0.00,VWS V14.01,2013-03-11 15:33:00,
2013-03-11 10:38:00,43.7,26.8,30.12,NW,315,7.0,14.0,51,0.00,,---,0.00,VWS V14.01,2013-03-11 15:38:00,
2013-03-11 10:43:00,44.1,27.1,30.12,WNW,302,1.0,8.0,51,0.00,,---,0.00,VWS V14.01,2013-03-11 15:43:00,
2013-03-11 10:48:00,44.5,27.5,30.13,West,265,6.0,11.0,51,0.00,,---,0.00,VWS V14.01,2013-03-11 15:48:00,
2013-03-11 10:53:00,44.6,27.1,30.13,NW,314,8.0,10.0,50,0.00,,---,0.00,VWS V14.01,2013-03-11 15:53:00,
2013-03-11 10:58:00,44.7,27.2,30.13,North,355,0.0,13.0,50,0.00,,---,0.00,VWS V14.01,2013-03-11 15:58:00,
2013-03-11 11:03:00,45.1,27.6,30.13,NW,324,8.0,13.0,50,0.00,,---,0.00,VWS V14.01,2013-03-11 16:03:00,
2013-03-11 11:08:00,45.2,27.2,30.13,WNW,297,4.0,15.0,49,0.00,,---,0.00,VWS V14.01,2013-03-11 16:08:00,
2013-03-11 11:13:00,45.3,26.8,30.13,West,281,10.0,11.0,48,0.00,,---,0.00,VWS V14.01,2013-03-11 16:13:00,
2013-03-11 11:18:00,45.4,26.4,30.13,West,263,5.0,10.0,47,0.00,,---,0.00,VWS V14.01,2013-03-11 16:18:00,
2013-03-11 11:23:00,45.7,27.1,30.13,NNW,342,3.0,13.0,48,0.00,,---,0.00,VWS V14.01,2013-03-11 16:23:00,
2013-03-11 11:28:00,46.1,26.5,30.13,WNW,302,9.0,9.0,46,0.00,,---,0.00,VWS V14.01,2013-03-11 16:28:00,
2013-03-11 11:33:00,46.3,26.1,30.13,West,273,8.0,18.0,45,0.00,,---,0.00,VWS V14.01,2013-03-11 16:33:00,
2013-03-11 11:38:00,46.7,26.0,30.13,WNW,293,3.0,12.0,44,0.00,,---,0.00,VWS V14.01,2013-03-11 16:38:00,
2013-03-11 11:43:00,46.8,26.0,30.13,NNW,330,7.0,10.0,44,0.00,,---,0.00,VWS V14.01,2013-03-11 16:43:00,
2013-03-11 11:48:00,47.2,27.0,30.13,WNW,290,3.0,9.0,45,0.00,,---,0.00,VWS V14.01,2013-03-11 16:48:00,
2013-03-11 11:53:00,47.6,27.3,30.13,WSW,240,6.0,13.0,45,0.00,,---,0.00,VWS V14.01,2013-03-11 16:53:00,
2013-03-11 11:58:00,47.8,27.0,30.14,WNW,302,7.0,8.0,44,0.00,,---,0.00,VWS V14.01,2013-03-11 16:58:00,
2013-03-11 12:03:00,47.8,27.0,30.13,NW,305,7.0,12.0,44,0.00,,---,0.00,VWS V14.01,2013-03-11 17:03:00,
2013-03-11 12:09:00,47.6,26.2,30.13,WNW,288,5.0,11.0,43,0.00,,---,0.00,VWS V14.01,2013-03-11 17:09:00,
2013-03-11 12:14:00,47.7,26.9,30.13,North,355,1.0,7.0,44,0.00,,---,0.00,VWS V14.01,2013-03-11 17:14:00,
2013-03-11 12:19:00,47.9,25.9,30.12,West,271,9.0,12.0,42,0.00,,---,0.00,VWS V14.01,2013-03-11 17:19:00,
2013-03-11 12:24:00,48.1,24.9,30.12,NE,51,3.0,9.0,40,0.00,,---,0.00,VWS V14.01,2013-03-11 17:24:00,
2013-03-11 12:29:00,47.8,24.7,30.12,NW,307,7.0,11.0,40,0.00,,---,0.00,VWS V14.01,2013-03-11 17:29:00,
2013-03-11 12:34:00,47.9,23.5,30.12,NW,326,6.0,12.0,38,0.00,,---,0.00,VWS V14.01,2013-03-11 17:34:00,
2013-03-11 12:39:00,48.1,24.9,30.12,NW,311,6.0,9.0,40,0.00,,---,0.00,VWS V14.01,2013-03-11 17:39:00,
2013-03-11 12:44:00,48.6,25.4,30.11,NW,311,6.0,12.0,40,0.00,,---,0.00,VWS V14.01,2013-03-11 17:44:00,
2013-03-11 12:49:00,49.0,25.1,30.12,NW,312,4.0,10.0,39,0.00,,---,0.00,VWS V14.01,2013-03-11 17:49:00,
2013-03-11 12:54:00,49.4,23.6,30.12,WNW,300,3.0,11.0,36,0.00,,---,0.00,VWS V14.01,2013-03-11 17:54:00,
2013-03-11 12:59:00,49.7,25.1,30.11,WNW,284,5.0,10.0,38,0.00,,---,0.00,VWS V14.01,2013-03-11 17:59:00,
2013-03-11 13:04:00,50.1,23.5,30.11,WSW,257,9.0,12.0,35,0.00,,---,0.00,VWS V14.01,2013-03-11 18:04:00,
2013-03-11 13:09:00,50.3,24.4,30.11,NW,318,2.0,8.0,36,0.00,,---,0.00,VWS V14.01,2013-03-11 18:09:00,
2013-03-11 13:14:00,50.4,23.8,30.11,NW,318,5.0,11.0,35,0.00,,---,0.00,VWS V14.01,2013-03-11 18:14:00,
2013-03-11 13:20:00,50.4,23.1,30.11,WNW,292,7.0,11.0,34,0.00,,---,0.00,VWS V14.01,2013-03-11 18:20:00,
2013-03-11 13:25:00,50.9,22.8,30.11,NW,304,5.0,15.0,33,0.00,,---,0.00,VWS V14.01,2013-03-11 18:25:00,
2013-03-11 13:30:00,51.1,23.7,30.11,NW,323,0.0,13.0,34,0.00,,---,0.00,VWS V14.01,2013-03-11 18:30:00,
2013-03-11 13:35:00,51.3,23.2,30.10,NW,308,10.0,13.0,33,0.00,,---,0.00,VWS V14.01,2013-03-11 18:35:00,
2013-03-11 13:40:00,51.5,23.4,30.10,NW,319,12.0,14.0,33,0.00,,---,0.00,VWS V14.01,2013-03-11 18:40:00,
2013-03-11 13:45:00,52.0,24.5,30.10,West,269,4.0,10.0,34,0.00,,---,0.00,VWS V14.01,2013-03-11 18:45:00,
2013-03-11 13:50:00,52.3,22.6,30.10,WNW,285,13.0,13.0,31,0.00,,---,0.00,VWS V14.01,2013-03-11 18:50:00,
2013-03-11 13:55:00,52.6,23.6,30.10,NW,304,4.0,11.0,32,0.00,,---,0.00,VWS V14.01,2013-03-11 18:55:00,
2013-03-11 14:00:00,52.4,23.4,30.09,North,355,5.0,9.0,32,0.00,,---,0.00,VWS V14.01,2013-03-11 19:00:00,
2013-03-11 14:05:00,52.2,22.5,30.09,WSW,255,6.0,9.0,31,0.00,,---,0.00,VWS V14.01,2013-03-11 19:05:00,
2013-03-11 14:10:00,53.0,24.0,30.09,WNW,288,2.0,14.0,32,0.00,,---,0.00,VWS V14.01,2013-03-11 19:10:00,
2013-03-11 14:15:00,53.4,22.8,30.09,West,267,6.0,14.0,30,0.00,,---,0.00,VWS V14.01,2013-03-11 19:15:00,
2013-03-11 14:20:00,53.7,22.2,30.08,NW,326,3.0,11.0,29,0.00,,---,0.00,VWS V14.01,2013-03-11 19:20:00,
2013-03-11 14:25:00,53.7,20.5,30.08,WNW,282,9.0,13.0,27,0.00,,---,0.00,VWS V14.01,2013-03-11 19:25:00,
2013-03-11 14:30:00,53.8,22.3,30.08,NW,313,4.0,7.0,29,0.00,,---,0.00,VWS V14.01,2013-03-11 19:30:00,
2013-03-11 14:35:00,54.1,22.6,30.07,WNW,294,3.0,5.0,29,0.00,,---,0.00,VWS V14.01,2013-03-11 19:35:00,
2013-03-11 14:40:00,54.4,22.0,30.07,WNW,289,4.0,13.0,28,0.00,,---,0.00,VWS V14.01,2013-03-11 19:40:00,
2013-03-11 14:46:00,54.7,21.4,30.07,NW,310,6.0,12.0,27,0.00,,---,0.00,VWS V14.01,2013-03-11 19:46:00,
2013-03-11 14:51:00,54.5,22.1,30.07,West,280,5.0,11.0,28,0.00,,---,0.00,VWS V14.01,2013-03-11 19:51:00,
2013-03-11 14:56:00,54.8,21.5,30.07,West,264,6.0,9.0,27,0.00,,---,0.00,VWS V14.01,2013-03-11 19:56:00,
2013-03-11 15:01:00,55.0,19.8,30.06,NW,325,0.0,16.0,25,0.00,,---,0.00,VWS V14.01,2013-03-11 20:01:00,
2013-03-11 15:06:00,55.0,20.8,30.06,WNW,288,6.0,13.0,26,0.00,,---,0.00,VWS V14.01,2013-03-11 20:06:00,
2013-03-11 15:11:00,55.1,20.9,30.06,NW,309,2.0,10.0,26,0.00,,---,0.00,VWS V14.01,2013-03-11 20:11:00,
2013-03-11 15:16:00,55.5,21.2,30.05,West,259,5.0,9.0,26,0.00,,---,0.00,VWS V14.01,2013-03-11 20:16:00,
2013-03-11 15:22:00,55.8,20.5,30.05,NW,314,8.0,12.0,25,0.00,,---,0.00,VWS V14.01,2013-03-11 20:22:00,
2013-03-11 15:27:00,56.1,22.6,30.04,NW,321,2.0,5.0,27,0.00,,---,0.00,VWS V14.01,2013-03-11 20:27:00,
2013-03-11 15:32:00,56.6,21.2,30.04,WNW,302,3.0,13.0,25,0.00,,---,0.00,VWS V14.01,2013-03-11 20:32:00,
2013-03-11 15:37:00,56.9,19.5,30.04,WSW,252,6.0,9.0,23,0.00,,---,0.00,VWS V14.01,2013-03-11 20:37:00,
2013-03-11 15:42:00,57.1,20.7,30.03,WSW,255,10.0,11.0,24,0.00,,---,0.00,VWS V14.01,2013-03-11 20:42:00,
2013-03-11 15:47:00,57.3,18.8,30.03,NNW,344,7.0,15.0,22,0.00,,---,0.00,VWS V14.01,2013-03-11 20:47:00,
2013-03-11 15:52:00,57.1,18.6,30.03,NW,305,6.0,12.0,22,0.00,,---,0.00,VWS V14.01,2013-03-11 20:52:00,
2013-03-11 15:57:00,57.3,18.8,30.03,WNW,300,3.0,8.0,22,0.00,,---,0.00,VWS V14.01,2013-03-11 20:57:00,
2013-03-11 16:02:00,57.4,19.9,30.03,WNW,282,10.0,10.0,23,0.00,,---,0.00,VWS V14.01,2013-03-11 21:02:00,
2013-03-11 16:07:00,57.8,19.2,30.03,NNW,327,2.0,10.0,22,0.00,,---,0.00,VWS V14.01,2013-03-11 21:07:00,
2013-03-11 16:12:00,58.3,20.7,30.03,SW,236,6.0,9.0,23,0.00,,---,0.00,VWS V14.01,2013-03-11 21:12:00,
2013-03-11 16:17:00,58.5,20.9,30.02,NW,322,6.0,7.0,23,0.00,,---,0.00,VWS V14.01,2013-03-11 21:17:00,
2013-03-11 16:22:00,58.4,20.8,30.02,WNW,292,0.0,11.0,23,0.00,,---,0.00,VWS V14.01,2013-03-11 21:22:00,
2013-03-11 16:27:00,58.4,19.7,30.02,NNW,337,9.0,12.0,22,0.00,,---,0.00,VWS V14.01,2013-03-11 21:27:00,
2013-03-11 16:32:00,58.2,19.6,30.02,NNW,342,12.0,13.0,22,0.00,,---,0.00,VWS V14.01,2013-03-11 21:32:00,
2013-03-11 16:37:00,58.0,20.4,30.02,NW,318,6.0,14.0,23,0.00,,---,0.00,VWS V14.01,2013-03-11 21:37:00,
2013-03-11 16:42:00,58.2,19.6,30.01,WNW,300,5.0,12.0,22,0.00,,---,0.00,VWS V14.01,2013-03-11 21:42:00,
2013-03-11 16:47:00,58.5,20.9,30.01,NNW,329,12.0,12.0,23,0.00,,---,0.00,VWS V14.01,2013-03-11 21:47:00,
2013-03-11 16:53:00,58.6,19.9,30.01,NW,317,5.0,11.0,22,0.00,,---,0.00,VWS V14.01,2013-03-11 21:53:00,
2013-03-11 16:58:00,58.5,20.9,30.00,North,9,4.0,9.0,23,0.00,,---,0.00,VWS V14.01,2013-03-11 21:58:00,
2013-03-11 17:03:00,58.4,19.7,30.01,NW,309,5.0,14.0,22,0.00,,---,0.00,VWS V14.01,2013-03-11 22:03:00,
2013-03-11 17:08:00,58.6,19.9,30.01,NW,311,6.0,10.0,22,0.00,,---,0.00,VWS V14.01,2013-03-11 22:08:00,
2013-03-11 17:13:00,58.5,20.9,30.01,NNW,338,7.0,9.0,23,0.00,,---,0.00,VWS V14.01,2013-03-11 22:13:00,
2013-03-11 17:18:00,58.3,20.7,30.00,NNW,331,6.0,8.0,23,0.00,,---,0.00,VWS V14.01,2013-03-11 22:18:00,
2013-03-11 17:23:00,58.6,20.9,30.00,NW,319,4.0,9.0,23,0.00,,---,0.00,VWS V14.01,2013-03-11 22:23:00,
2013-03-11 17:28:00,58.7,21.0,30.00,North,360,3.0,7.0,23,0.00,,---,0.00,VWS V14.01,2013-03-11 22:28:00,
2013-03-11 17:33:00,58.6,21.9,30.00,NNW,339,4.0,9.0,24,0.00,,---,0.00,VWS V14.01,2013-03-11 22:33:00,
2013-03-11 17:38:00,58.4,22.7,30.00,NNW,332,5.0,9.0,25,0.00,,---,0.00,VWS V14.01,2013-03-11 22:38:00,
2013-03-11 17:43:00,58.2,22.6,30.00,North,349,4.0,6.0,25,0.00,,---,0.00,VWS V14.01,2013-03-11 22:43:00,
2013-03-11 17:48:00,58.0,22.4,30.00,North,5,5.0,8.0,25,0.00,,---,0.00,VWS V14.01,2013-03-11 22:48:00,
2013-03-11 17:53:00,58.1,21.5,30.00,NW,325,4.0,8.0,24,0.00,,---,0.00,VWS V14.01,2013-03-11 22:53:00,
2013-03-11 17:58:00,58.3,22.6,30.00,North,360,5.0,7.0,25,0.00,,---,0.00,VWS V14.01,2013-03-11 22:58:00,
2013-03-11 18:03:00,58.2,22.6,30.00,NNW,347,1.0,8.0,25,0.00,,---,0.00,VWS V14.01,2013-03-11 23:03:00,
2013-03-11 18:08:00,58.4,21.8,30.00,WSW,257,15.0,15.0,24,0.00,,---,0.00,VWS V14.01,2013-03-11 23:08:00,
2013-03-11 18:13:00,58.5,21.9,30.00,North,355,1.0,8.0,24,0.00,,---,0.00,VWS V14.01,2013-03-11 23:13:00,
2013-03-11 18:18:00,58.5,21.9,30.00,North,360,2.0,10.0,24,0.00,,---,0.00,VWS V14.01,2013-03-11 23:18:00,
2013-03-11 18:24:00,58.6,22.9,30.00,WNW,292,1.0,4.0,25,0.00,,---,0.00,VWS V14.01,2013-03-11 23:24:00,
2013-03-11 18:29:00,58.6,21.9,30.01,NNW,337,3.0,5.0,24,0.00,,---,0.00,VWS V14.01,2013-03-11 23:29:00,
2013-03-11 18:34:00,58.7,22.0,30.00,NNW,338,5.0,7.0,24,0.00,,---,0.00,VWS V14.01,2013-03-11 23:34:00,
2013-03-11 18:39:00,58.6,22.9,30.01,NW,321,3.0,6.0,25,0.00,,---,0.00,VWS V14.01,2013-03-11 23:39:00,
2013-03-11 18:44:00,58.6,22.9,30.01,NNW,338,4.0,6.0,25,0.00,,---,0.00,VWS V14.01,2013-03-11 23:44:00,
2013-03-11 18:49:00,58.5,22.8,30.01,NW,316,4.0,7.0,25,0.00,,---,0.00,VWS V14.01,2013-03-11 23:49:00,
2013-03-11 18:54:00,58.2,23.5,30.01,NNW,331,1.0,4.0,26,0.00,,---,0.00,VWS V14.01,2013-03-11 23:54:00,
2013-03-11 18:59:00,57.7,23.1,30.01,NNW,334,3.0,6.0,26,0.00,,---,0.00,VWS V14.01,2013-03-11 23:59:00,
2013-03-11 19:04:00,57.3,22.7,30.01,North,349,1.0,4.0,26,0.00,,---,0.00,VWS V14.01,2013-03-12 00:04:00,
2013-03-11 19:09:00,56.8,23.2,30.01,NNW,348,1.0,1.0,27,0.00,,---,0.00,VWS V14.01,2013-03-12 00:09:00,
2013-03-11 19:14:00,56.3,23.6,30.01,NNW,348,3.0,3.0,28,0.00,,---,0.00,VWS V14.01,2013-03-12 00:14:00,
2013-03-11 19:19:00,55.7,24.0,30.01,North,360,2.0,3.0,29,0.00,,---,0.00,VWS V14.01,2013-03-12 00:19:00,
2013-03-11 19:25:00,55.2,24.3,30.01,North,360,0.0,0.0,30,0.00,,---,0.00,VWS V14.01,2013-03-12 00:25:00,
2013-03-11 19:30:00,54.8,24.0,30.01,North,360,0.0,0.0,30,0.00,,---,0.00,VWS V14.01,2013-03-12 00:30:00,
2013-03-11 19:35:00,54.4,25.2,30.01,North,360,0.0,0.0,32,0.00,,---,0.00,VWS V14.01,2013-03-12 00:35:00,
2013-03-11 19:40:00,54.1,24.9,30.01,North,360,0.0,0.0,32,0.00,,---,0.00,VWS V14.01,2013-03-12 00:40:00,